EST,Max TemperatureF,Mean TemperatureF,Min TemperatureF,Max Dew PointF,MeanDew PointF,Min DewpointF,Max Humidity, Mean Humidity, Min Humidity, Max Sea Level PressureIn, Mean Sea Level PressureIn, Min Sea Level PressureIn, Max VisibilityMiles, Mean VisibilityMiles, Min VisibilityMiles, Max Wind SpeedMPH, Mean Wind SpeedMPH, Max Gust SpeedMPH,PrecipitationIn, CloudCover, Events, WindDirDegrees
2011-11-1,50,39,28,37,31,27,100,80,47,30.38,30.35,30.32,10,7,0,7,1,,0.00,2,,350
2011-11-2,53,42,30,36,32,28,100,80,47,30.39,30.32,30.25,10,5,0,8,3,,0.00,4,,235
2011-11-3,55,44,33,39,36,32,93,72,51,30.19,29.97,29.85,10,9,0,14,5,17,0.00,1,,239
2011-11-4,48,44,37,39,25,21,71,51,37,30.17,30.00,29.88,10,10,10,17,10,29,0.00,2,,306
2011-11-5,48,36,24,25,22,18,86,61,30,30.43,30.36,30.24,10,10,10,8,3,,0.00,0,,243
2011-11-6,57,42,26,28,23,12,93,61,17,30.44,30.37,30.27,10,10,10,13,5,20,0.00,0,,243
2011-11-7,64,48,32,45,34,25,81,61,27,30.26,30.18,30.12,10,10,10,12,6,,0.00,0,,237
2011-11-8,64,52,41,45,41,37,87,69,37,30.22,30.19,30.16,10,10,5,12,4,,0.00,1,,242
2011-11-9,68,54,39,50,43,36,93,73,49,30.21,30.13,30.05,10,7,2,12,2,,0.00,0,,140
2011-11-10,59,54,46,55,51,43,94,87,72,30.03,29.80,29.51,10,9,1,14,5,22,0.61,8,,31
2011-11-11,46,42,37,39,31,21,81,64,37,29.62,29.47,29.38,10,10,10,18,9,31,0.00,5,,276
2011-11-12,48,40,33,27,25,21,70,54,37,30.02,29.91,29.79,10,10,10,18,12,24,0.00,3,,221
2011-11-13,55,42,28,39,34,27,93,73,47,30.12,30.01,29.88,10,10,7,10,2,16,0.00,1,,253
2011-11-14,62,54,46,48,41,36,88,59,42,29.86,29.77,29.67,10,10,4,14,7,17,0.34,3,,221
2011-11-15,60,50,39,52,44,37,93,74,48,29.94,29.75,29.59,10,9,0,13,5,21,0.00,2,,258
2011-11-16,51,43,35,46,40,34,93,88,67,29.94,29.84,29.68,10,5,0,5,0,,0.13,7,,205
2011-11-17,48,42,35,45,30,21,93,62,46,29.83,29.76,29.68,10,9,1,16,5,20,0.00,5,,275
2011-11-18,41,36,32,23,19,16,60,50,36,30.31,30.12,29.84,10,10,10,20,9,26,0.00,1,,252
2011-11-19,51,40,28,25,21,18,80,51,26,30.30,30.22,30.15,10,10,10,16,5,21,0.00,2,,235
2011-11-20,62,52,42,43,35,23,63,54,46,30.11,29.98,29.89,10,10,10,17,10,23,0.00,5,,234
2011-11-21,46,36,26,34,22,16,80,57,31,30.34,30.26,30.09,10,10,10,15,4,21,0.00,0,,269
2011-11-22,42,32,21,30,23,18,93,73,42,30.39,30.32,30.21,10,10,10,7,1,,0.00,2,,230
2011-11-23,35,32,30,32,29,27,93,83,75,30.21,29.89,29.69,10,6,0,20,9,29,0.44,7,,46
2011-11-24,37,30,24,30,26,21,93,80,65,30.11,30.05,29.94,10,10,7,14,4,,0.42,4,,235
2011-11-25,48,39,30,37,32,28,93,82,62,30.06,29.99,29.93,10,9,0,14,6,,0.00,1,,238
2011-11-26,53,42,32,36,33,28,93,80,51,30.21,30.11,29.99,10,10,7,9,3,,0.00,0,,241
2011-11-27,42,38,33,39,37,30,93,88,81,30.23,30.19,30.13,10,6,2,14,6,16,0.00,6,,67
2011-11-28,,,,,,,,,,,,,,,,,,,,,,
2011-11-29,51,50,48,48,46,45,94,86,82,30.10,29.96,29.74,10,9,2,15,9,18,0.10,8,,44
2011-11-30,60,51,42,55,42,30,94,70,54,29.71,29.58,29.52,10,10,5,20,12,29,0.53,5,,209